owner,sensor,date,latitude,longitude,vertical_datum,sea_water_practical_salinity,qcFlag 
NERRS,ioos:station:NOAA.NERRS:gtmpcwq:1,2015-02-01T00:45:00Z,29.6671,-81.2574,1.78,9.4,1111122 
NERRS,ioos:station:NOAA.NERRS:gtmpcwq:1,2015-02-01T01:45:00Z,29.6671,-81.2574,1.82,11.3,1111122 
NERRS,ioos:station:NOAA.NERRS:gtmpcwq:1,2015-02-01T02:45:00Z,29.6671,-81.2574,1.81,12.0,1111122 
NERRS,ioos:station:NOAA.NERRS:gtmpcwq:1,2015-02-01T03:45:00Z,29.6671,-81.2574,1.74,10.6,1111122 
NERRS,ioos:station:NOAA.NERRS:gtmpcwq:1,2015-02-01T04:45:00Z,29.6671,-81.2574,1.65,6.3,1111122 
NERRS,ioos:station:NOAA.NERRS:gtmpcwq:1,2015-02-01T06:45:00Z,29.6671,-81.2574,1.47,3.0,1111122 
NERRS,ioos:station:NOAA.NERRS:gtmpcwq:1,2015-02-01T07:45:00Z,29.6671,-81.2574,1.4,1.6,1111122 
NERRS,ioos:station:NOAA.NERRS:gtmpcwq:1,2015-02-01T08:45:00Z,29.6671,-81.2574,1.35,1.3,1111122 
NERRS,ioos:station:NOAA.NERRS:gtmpcwq:1,2015-02-01T09:45:00Z,29.6671,-81.2574,1.36,1.3,1111122 
NERRS,ioos:station:NOAA.NERRS:gtmpcwq:1,2015-02-01T10:45:00Z,29.6671,-81.2574,1.46,2.9,1111122 
NERRS,ioos:station:NOAA.NERRS:gtmpcwq:1,2015-02-01T11:45:00Z,29.6671,-81.2574,1.61,5.0,1111122 
NERRS,ioos:station:NOAA.NERRS:gtmpcwq:1,2015-02-01T12:45:00Z,29.6671,-81.2574,1.75,10.0,1111122 
NERRS,ioos:station:NOAA.NERRS:gtmpcwq:1,2015-02-01T13:45:00Z,29.6671,-81.2574,1.83,19.2,1111122 
NERRS,ioos:station:NOAA.NERRS:gtmpcwq:1,2015-02-01T14:45:00Z,29.6671,-81.2574,1.87,21.7,1111122 
NERRS,ioos:station:NOAA.NERRS:gtmpcwq:1,2015-02-01T15:45:00Z,29.6671,-81.2574,1.85,22.3,1111122 
NERRS,ioos:station:NOAA.NERRS:gtmpcwq:1,2015-02-01T16:45:00Z,29.6671,-81.2574,1.77,19.8,1111122 
NERRS,ioos:station:NOAA.NERRS:gtmpcwq:1,2015-02-01T17:45:00Z,29.6671,-81.2574,1.67,13.9,1111122 
NERRS,ioos:station:NOAA.NERRS:gtmpcwq:1,2015-02-01T18:45:00Z,29.6671,-81.2574,1.57,6.7,1111122 
NERRS,ioos:station:NOAA.NERRS:gtmpcwq:1,2015-02-01T19:45:00Z,29.6671,-81.2574,1.48,5.5,1111122 
NERRS,ioos:station:NOAA.NERRS:gtmpcwq:1,2015-02-01T20:45:00Z,29.6671,-81.2574,1.41,4.7,1111122 
NERRS,ioos:station:NOAA.NERRS:gtmpcwq:1,2015-02-01T21:45:00Z,29.6671,-81.2574,1.35,3.3,1111122 
NERRS,ioos:station:NOAA.NERRS:gtmpcwq:1,2015-02-01T22:45:00Z,29.6671,-81.2574,1.35,1.7,1111122 
NERRS,ioos:station:NOAA.NERRS:gtmpcwq:1,2015-02-01T23:45:00Z,29.6671,-81.2574,1.44,2.0,1111122 
NERRS,ioos:station:NOAA.NERRS:gtmpcwq:1,2015-02-02T00:45:00Z,29.6671,-81.2574,1.55,4.8,1111122 
NERRS,ioos:station:NOAA.NERRS:gtmpcwq:1,2015-02-02T01:45:00Z,29.6671,-81.2574,1.65,9.0,1111122 
NERRS,ioos:station:NOAA.NERRS:gtmpcwq:1,2015-02-02T02:45:00Z,29.6671,-81.2574,1.68,10.9,1111122 
NERRS,ioos:station:NOAA.NERRS:gtmpcwq:1,2015-02-02T03:45:00Z,29.6671,-81.2574,1.64,10.9,1111122 
NERRS,ioos:station:NOAA.NERRS:gtmpcwq:1,2015-02-02T04:45:00Z,29.6671,-81.2574,1.55,6.4,1111122 
NERRS,ioos:station:NOAA.NERRS:gtmpcwq:1,2015-02-02T05:45:00Z,29.6671,-81.2574,1.46,5.8,1111122 
NERRS,ioos:station:NOAA.NERRS:gtmpcwq:1,2015-02-02T06:45:00Z,29.6671,-81.2574,1.37,6.0,1111122 
NERRS,ioos:station:NOAA.NERRS:gtmpcwq:1,2015-02-02T07:45:00Z,29.6671,-81.2574,1.29,4.0,1111122 
NERRS,ioos:station:NOAA.NERRS:gtmpcwq:1,2015-02-02T08:45:00Z,29.6671,-81.2574,1.23,1.5,1111122 
NERRS,ioos:station:NOAA.NERRS:gtmpcwq:1,2015-02-02T09:45:00Z,29.6671,-81.2574,1.17,0.7,1111122 
NERRS,ioos:station:NOAA.NERRS:gtmpcwq:1,2015-02-02T10:45:00Z,29.6671,-81.2574,1.15,0.5,1111122 
NERRS,ioos:station:NOAA.NERRS:gtmpcwq:1,2015-02-02T11:45:00Z,29.6671,-81.2574,1.22,0.7,1111122 
NERRS,ioos:station:NOAA.NERRS:gtmpcwq:1,2015-02-02T12:45:00Z,29.6671,-81.2574,1.34,2.1,1111122 
NERRS,ioos:station:NOAA.NERRS:gtmpcwq:1,2015-02-02T13:45:00Z,29.6671,-81.2574,1.48,7.2,1111122 
NERRS,ioos:station:NOAA.NERRS:gtmpcwq:1,2015-02-02T14:45:00Z,29.6671,-81.2574,1.58,8.5,1111122 
NERRS,ioos:station:NOAA.NERRS:gtmpcwq:1,2015-02-02T15:45:00Z,29.6671,-81.2574,1.57,10.2,1111122 
NERRS,ioos:station:NOAA.NERRS:gtmpcwq:1,2015-02-02T16:45:00Z,29.6671,-81.2574,1.51,6.3,1111122 
NERRS,ioos:station:NOAA.NERRS:gtmpcwq:1,2015-02-02T17:45:00Z,29.6671,-81.2574,1.4,6.9,1111122 
NERRS,ioos:station:NOAA.NERRS:gtmpcwq:1,2015-02-02T18:45:00Z,29.6671,-81.2574,1.32,3.3,1111122 
NERRS,ioos:station:NOAA.NERRS:gtmpcwq:1,2015-02-02T19:45:00Z,29.6671,-81.2574,1.24,2.4,1111122 
NERRS,ioos:station:NOAA.NERRS:gtmpcwq:1,2015-02-02T20:45:00Z,29.6671,-81.2574,1.19,1.6,1111122 
NERRS,ioos:station:NOAA.NERRS:gtmpcwq:1,2015-02-02T22:45:00Z,29.6671,-81.2574,1.12,0.7,1111122 
NERRS,ioos:station:NOAA.NERRS:gtmpcwq:1,2015-02-02T23:45:00Z,29.6671,-81.2574,1.13,1.2,1111122 
NERRS,ioos:station:NOAA.NERRS:gtmpcwq:1,2015-02-03T01:45:00Z,29.6671,-81.2574,1.31,1.8,1111122 
NERRS,ioos:station:NOAA.NERRS:gtmpcwq:1,2015-02-03T02:45:00Z,29.6671,-81.2574,1.41,2.6,1111122 
NERRS,ioos:station:NOAA.NERRS:gtmpcwq:1,2015-02-03T03:45:00Z,29.6671,-81.2574,1.46,4.7,1111122 
NERRS,ioos:station:NOAA.NERRS:gtmpcwq:1,2015-02-03T04:45:00Z,29.6671,-81.2574,1.42,5.4,1111122 
NERRS,ioos:station:NOAA.NERRS:gtmpcwq:1,2015-02-03T05:45:00Z,29.6671,-81.2574,1.35,5.4,1111122 
NERRS,ioos:station:NOAA.NERRS:gtmpcwq:1,2015-02-03T06:45:00Z,29.6671,-81.2574,1.3,5.0,1111122 
NERRS,ioos:station:NOAA.NERRS:gtmpcwq:1,2015-02-03T07:45:00Z,29.6671,-81.2574,1.25,4.7,1111122 
NERRS,ioos:station:NOAA.NERRS:gtmpcwq:1,2015-02-03T08:45:00Z,29.6671,-81.2574,1.21,3.8,1111122 
NERRS,ioos:station:NOAA.NERRS:gtmpcwq:1,2015-02-03T09:45:00Z,29.6671,-81.2574,1.18,3.5,1111122 
NERRS,ioos:station:NOAA.NERRS:gtmpcwq:1,2015-02-03T10:45:00Z,29.6671,-81.2574,1.16,3.2,1111122 
NERRS,ioos:station:NOAA.NERRS:gtmpcwq:1,2015-02-03T11:45:00Z,29.6671,-81.2574,1.21,0.8,1111122 
NERRS,ioos:station:NOAA.NERRS:gtmpcwq:1,2015-02-03T12:45:00Z,29.6671,-81.2574,1.31,1.4,1111122 
NERRS,ioos:station:NOAA.NERRS:gtmpcwq:1,2015-02-03T13:45:00Z,29.6671,-81.2574,1.46,2.8,1111122 
NERRS,ioos:station:NOAA.NERRS:gtmpcwq:1,2015-02-03T14:45:00Z,29.6671,-81.2574,1.64,5.9,1111122 
NERRS,ioos:station:NOAA.NERRS:gtmpcwq:1,2015-02-03T15:45:00Z,29.6671,-81.2574,1.76,9.2,1111122 
NERRS,ioos:station:NOAA.NERRS:gtmpcwq:1,2015-02-03T16:45:00Z,29.6671,-81.2574,1.78,10.6,1111122 
NERRS,ioos:station:NOAA.NERRS:gtmpcwq:1,2015-02-03T17:45:00Z,29.6671,-81.2574,1.71,9.5,1111122 
NERRS,ioos:station:NOAA.NERRS:gtmpcwq:1,2015-02-03T18:45:00Z,29.6671,-81.2574,1.6,6.3,1111122 
NERRS,ioos:station:NOAA.NERRS:gtmpcwq:1,2015-02-03T19:45:00Z,29.6671,-81.2574,1.51,3.9,1111122 
NERRS,ioos:station:NOAA.NERRS:gtmpcwq:1,2015-02-03T20:45:00Z,29.6671,-81.2574,1.43,3.3,1111122 
NERRS,ioos:station:NOAA.NERRS:gtmpcwq:1,2015-02-03T21:45:00Z,29.6671,-81.2574,1.37,2.1,1111122 
NERRS,ioos:station:NOAA.NERRS:gtmpcwq:1,2015-02-03T22:45:00Z,29.6671,-81.2574,1.32,1.6,1111122 
NERRS,ioos:station:NOAA.NERRS:gtmpcwq:1,2015-02-03T23:45:00Z,29.6671,-81.2574,1.3,2.3,1111122 
NERRS,ioos:station:NOAA.NERRS:gtmpcwq:1,2015-02-04T00:45:00Z,29.6671,-81.2574,1.38,2.2,1111122 
NERRS,ioos:station:NOAA.NERRS:gtmpcwq:1,2015-02-04T01:45:00Z,29.6671,-81.2574,1.49,3.0,1111122 
NERRS,ioos:station:NOAA.NERRS:gtmpcwq:1,2015-02-04T02:45:00Z,29.6671,-81.2574,1.61,4.9,1111122 
NERRS,ioos:station:NOAA.NERRS:gtmpcwq:1,2015-02-04T03:45:00Z,29.6671,-81.2574,1.7,6.6,1111122 
NERRS,ioos:station:NOAA.NERRS:gtmpcwq:1,2015-02-04T04:45:00Z,29.6671,-81.2574,1.7,7.3,1111122 
NERRS,ioos:station:NOAA.NERRS:gtmpcwq:1,2015-02-04T05:45:00Z,29.6671,-81.2574,1.62,6.1,1111122 
NERRS,ioos:station:NOAA.NERRS:gtmpcwq:1,2015-02-04T06:45:00Z,29.6671,-81.2574,1.53,4.2,1111122 
NERRS,ioos:station:NOAA.NERRS:gtmpcwq:1,2015-02-04T07:45:00Z,29.6671,-81.2574,1.45,2.6,1111122 
NERRS,ioos:station:NOAA.NERRS:gtmpcwq:1,2015-02-04T08:45:00Z,29.6671,-81.2574,1.37,2.2,1111122 
NERRS,ioos:station:NOAA.NERRS:gtmpcwq:1,2015-02-04T09:45:00Z,29.6671,-81.2574,1.31,2.3,1111122 
NERRS,ioos:station:NOAA.NERRS:gtmpcwq:1,2015-02-04T10:45:00Z,29.6671,-81.2574,1.26,2.7,1111122 
NERRS,ioos:station:NOAA.NERRS:gtmpcwq:1,2015-02-04T11:45:00Z,29.6671,-81.2574,1.26,1.5,1111122 
NERRS,ioos:station:NOAA.NERRS:gtmpcwq:1,2015-02-04T12:45:00Z,29.6671,-81.2574,1.33,1.6,1111122 
NERRS,ioos:station:NOAA.NERRS:gtmpcwq:1,2015-02-04T13:45:00Z,29.6671,-81.2574,1.45,2.5,1111122 
NERRS,ioos:station:NOAA.NERRS:gtmpcwq:1,2015-02-04T14:45:00Z,29.6671,-81.2574,1.6,5.1,1111122 
NERRS,ioos:station:NOAA.NERRS:gtmpcwq:1,2015-02-04T15:45:00Z,29.6671,-81.2574,1.73,7.9,1111122 
NERRS,ioos:station:NOAA.NERRS:gtmpcwq:1,2015-02-04T17:45:00Z,29.6671,-81.2574,1.72,11.4,1111122 
NERRS,ioos:station:NOAA.NERRS:gtmpcwq:1,2015-02-04T18:45:00Z,29.6671,-81.2574,1.63,8.8,1111122 
NERRS,ioos:station:NOAA.NERRS:gtmpcwq:1,2015-02-04T19:45:00Z,29.6671,-81.2574,1.53,4.3,1111122 
NERRS,ioos:station:NOAA.NERRS:gtmpcwq:1,2015-02-04T20:45:00Z,29.6671,-81.2574,1.44,3.3,1111122 
NERRS,ioos:station:NOAA.NERRS:gtmpcwq:1,2015-02-04T22:45:00Z,29.6671,-81.2574,1.29,1.6,1111122 
NERRS,ioos:station:NOAA.NERRS:gtmpcwq:1,2015-02-05T00:45:00Z,29.6671,-81.2574,1.29,1.2,1111122 
NERRS,ioos:station:NOAA.NERRS:gtmpcwq:1,2015-02-05T01:45:00Z,29.6671,-81.2574,1.4,2.5,1111122 
NERRS,ioos:station:NOAA.NERRS:gtmpcwq:1,2015-02-05T02:45:00Z,29.6671,-81.2574,1.51,4.6,1111122 
NERRS,ioos:station:NOAA.NERRS:gtmpcwq:1,2015-02-05T03:45:00Z,29.6671,-81.2574,1.62,7.8,1111122 
NERRS,ioos:station:NOAA.NERRS:gtmpcwq:1,2015-02-05T04:45:00Z,29.6671,-81.2574,1.68,9.7,1111122 
NERRS,ioos:station:NOAA.NERRS:gtmpcwq:1,2015-02-05T05:45:00Z,29.6671,-81.2574,1.65,11.0,1111122 
NERRS,ioos:station:NOAA.NERRS:gtmpcwq:1,2015-02-05T06:45:00Z,29.6671,-81.2574,1.58,7.9,1111122 
NERRS,ioos:station:NOAA.NERRS:gtmpcwq:1,2015-02-05T07:45:00Z,29.6671,-81.2574,1.48,5.2,1111122 
NERRS,ioos:station:NOAA.NERRS:gtmpcwq:1,2015-02-05T08:45:00Z,29.6671,-81.2574,1.37,3.1,1111122 
NERRS,ioos:station:NOAA.NERRS:gtmpcwq:1,2015-02-05T09:45:00Z,29.6671,-81.2574,1.29,1.8,1111122 
NERRS,ioos:station:NOAA.NERRS:gtmpcwq:1,2015-02-05T10:45:00Z,29.6671,-81.2574,1.23,1.3,1111122 
NERRS,ioos:station:NOAA.NERRS:gtmpcwq:1,2015-02-05T11:45:00Z,29.6671,-81.2574,1.2,1.9,1111122 
NERRS,ioos:station:NOAA.NERRS:gtmpcwq:1,2015-02-05T12:45:00Z,29.6671,-81.2574,1.28,1.5,1111122 
NERRS,ioos:station:NOAA.NERRS:gtmpcwq:1,2015-02-05T13:45:00Z,29.6671,-81.2574,1.43,2.5,1111122 
NERRS,ioos:station:NOAA.NERRS:gtmpcwq:1,2015-02-05T14:45:00Z,29.6671,-81.2574,1.59,6.0,1111122 
NERRS,ioos:station:NOAA.NERRS:gtmpcwq:1,2015-02-05T15:45:00Z,29.6671,-81.2574,1.7,12.6,1111122 
NERRS,ioos:station:NOAA.NERRS:gtmpcwq:1,2015-02-05T16:45:00Z,29.6671,-81.2574,1.77,16.3,1111122 
NERRS,ioos:station:NOAA.NERRS:gtmpcwq:1,2015-02-05T17:45:00Z,29.6671,-81.2574,1.79,19.4,1111122 
NERRS,ioos:station:NOAA.NERRS:gtmpcwq:1,2015-02-05T18:45:00Z,29.6671,-81.2574,1.75,19.0,1111122 
NERRS,ioos:station:NOAA.NERRS:gtmpcwq:1,2015-02-05T19:45:00Z,29.6671,-81.2574,1.67,15.4,1111122 
NERRS,ioos:station:NOAA.NERRS:gtmpcwq:1,2015-02-05T20:45:00Z,29.6671,-81.2574,1.59,8.6,1111122 
NERRS,ioos:station:NOAA.NERRS:gtmpcwq:1,2015-02-05T21:45:00Z,29.6671,-81.2574,1.5,3.8,1111122 
NERRS,ioos:station:NOAA.NERRS:gtmpcwq:1,2015-02-05T22:45:00Z,29.6671,-81.2574,1.42,2.3,1111122 
NERRS,ioos:station:NOAA.NERRS:gtmpcwq:1,2015-02-05T23:45:00Z,29.6671,-81.2574,1.37,1.4,1111122 
NERRS,ioos:station:NOAA.NERRS:gtmpcwq:1,2015-02-06T00:45:00Z,29.6671,-81.2574,1.37,1.4,1111122 
NERRS,ioos:station:NOAA.NERRS:gtmpcwq:1,2015-02-06T01:45:00Z,29.6671,-81.2574,1.48,2.8,1111122 
NERRS,ioos:station:NOAA.NERRS:gtmpcwq:1,2015-02-06T02:45:00Z,29.6671,-81.2574,1.61,4.0,1111122 
NERRS,ioos:station:NOAA.NERRS:gtmpcwq:1,2015-02-06T03:45:00Z,29.6671,-81.2574,1.72,7.5,1111122 
NERRS,ioos:station:NOAA.NERRS:gtmpcwq:1,2015-02-06T04:45:00Z,29.6671,-81.2574,1.79,9.5,1111122 
NERRS,ioos:station:NOAA.NERRS:gtmpcwq:1,2015-02-06T05:45:00Z,29.6671,-81.2574,1.82,11.9,1111122 
NERRS,ioos:station:NOAA.NERRS:gtmpcwq:1,2015-02-06T06:45:00Z,29.6671,-81.2574,1.79,12.0,1111122 
NERRS,ioos:station:NOAA.NERRS:gtmpcwq:1,2015-02-06T07:45:00Z,29.6671,-81.2574,1.72,9.0,1111122 
NERRS,ioos:station:NOAA.NERRS:gtmpcwq:1,2015-02-06T08:45:00Z,29.6671,-81.2574,1.64,4.8,1111122 
NERRS,ioos:station:NOAA.NERRS:gtmpcwq:1,2015-02-06T09:45:00Z,29.6671,-81.2574,1.57,2.6,1111122 
NERRS,ioos:station:NOAA.NERRS:gtmpcwq:1,2015-02-06T10:45:00Z,29.6671,-81.2574,1.5,1.4,1111122 
NERRS,ioos:station:NOAA.NERRS:gtmpcwq:1,2015-02-06T11:45:00Z,29.6671,-81.2574,1.45,1.0,1111122 
NERRS,ioos:station:NOAA.NERRS:gtmpcwq:1,2015-02-06T12:45:00Z,29.6671,-81.2574,1.49,1.4,1111122 
NERRS,ioos:station:NOAA.NERRS:gtmpcwq:1,2015-02-06T13:45:00Z,29.6671,-81.2574,1.59,3.1,1111122 
NERRS,ioos:station:NOAA.NERRS:gtmpcwq:1,2015-02-06T14:45:00Z,29.6671,-81.2574,1.72,4.6,1111122 
NERRS,ioos:station:NOAA.NERRS:gtmpcwq:1,2015-02-06T15:45:00Z,29.6671,-81.2574,1.82,6.9,1111122 
NERRS,ioos:station:NOAA.NERRS:gtmpcwq:1,2015-02-06T16:45:00Z,29.6671,-81.2574,1.89,9.7,1111122 
NERRS,ioos:station:NOAA.NERRS:gtmpcwq:1,2015-02-06T17:45:00Z,29.6671,-81.2574,1.93,12.9,1111122 
NERRS,ioos:station:NOAA.NERRS:gtmpcwq:1,2015-02-06T18:45:00Z,29.6671,-81.2574,1.92,14.2,1111122 
NERRS,ioos:station:NOAA.NERRS:gtmpcwq:1,2015-02-06T19:45:00Z,29.6671,-81.2574,1.86,12.1,1111122 
NERRS,ioos:station:NOAA.NERRS:gtmpcwq:1,2015-02-06T21:45:00Z,29.6671,-81.2574,1.7,4.4,1111122 
NERRS,ioos:station:NOAA.NERRS:gtmpcwq:1,2015-02-06T22:45:00Z,29.6671,-81.2574,1.61,2.1,1111122 
NERRS,ioos:station:NOAA.NERRS:gtmpcwq:1,2015-02-06T23:45:00Z,29.6671,-81.2574,1.52,1.0,1111122 
NERRS,ioos:station:NOAA.NERRS:gtmpcwq:1,2015-02-07T00:45:00Z,29.6671,-81.2574,1.46,0.6,1111122 
NERRS,ioos:station:NOAA.NERRS:gtmpcwq:1,2015-02-07T01:45:00Z,29.6671,-81.2574,1.49,0.6,1111122 
NERRS,ioos:station:NOAA.NERRS:gtmpcwq:1,2015-02-07T02:45:00Z,29.6671,-81.2574,1.6,2.3,1111122 
NERRS,ioos:station:NOAA.NERRS:gtmpcwq:1,2015-02-07T03:45:00Z,29.6671,-81.2574,1.71,3.1,1111122 
NERRS,ioos:station:NOAA.NERRS:gtmpcwq:1,2015-02-07T04:45:00Z,29.6671,-81.2574,1.8,7.4,1111122 
NERRS,ioos:station:NOAA.NERRS:gtmpcwq:1,2015-02-07T05:45:00Z,29.6671,-81.2574,1.85,10.2,1111122 
NERRS,ioos:station:NOAA.NERRS:gtmpcwq:1,2015-02-07T06:45:00Z,29.6671,-81.2574,1.86,11.4,1111122 
NERRS,ioos:station:NOAA.NERRS:gtmpcwq:1,2015-02-07T07:45:00Z,29.6671,-81.2574,1.79,9.8,1111122 
NERRS,ioos:station:NOAA.NERRS:gtmpcwq:1,2015-02-07T08:45:00Z,29.6671,-81.2574,1.71,5.2,1111122 
NERRS,ioos:station:NOAA.NERRS:gtmpcwq:1,2015-02-07T09:45:00Z,29.6671,-81.2574,1.61,2.1,1111122 
NERRS,ioos:station:NOAA.NERRS:gtmpcwq:1,2015-02-07T10:45:00Z,29.6671,-81.2574,1.52,1.0,1111122 
NERRS,ioos:station:NOAA.NERRS:gtmpcwq:1,2015-02-07T11:45:00Z,29.6671,-81.2574,1.45,0.6,1111122 
NERRS,ioos:station:NOAA.NERRS:gtmpcwq:1,2015-02-07T12:45:00Z,29.6671,-81.2574,1.4,0.4,1111122 
NERRS,ioos:station:NOAA.NERRS:gtmpcwq:1,2015-02-07T13:45:00Z,29.6671,-81.2574,1.43,0.4,1111122 
NERRS,ioos:station:NOAA.NERRS:gtmpcwq:1,2015-02-07T14:45:00Z,29.6671,-81.2574,1.53,1.7,1111122 
NERRS,ioos:station:NOAA.NERRS:gtmpcwq:1,2015-02-07T15:45:00Z,29.6671,-81.2574,1.66,2.9,1111122 
NERRS,ioos:station:NOAA.NERRS:gtmpcwq:1,2015-02-07T16:45:00Z,29.6671,-81.2574,1.76,6.3,1111122 
NERRS,ioos:station:NOAA.NERRS:gtmpcwq:1,2015-02-07T17:45:00Z,29.6671,-81.2574,1.82,10.5,1111122 
NERRS,ioos:station:NOAA.NERRS:gtmpcwq:1,2015-02-07T18:45:00Z,29.6671,-81.2574,1.83,11.7,1111122 
NERRS,ioos:station:NOAA.NERRS:gtmpcwq:1,2015-02-07T19:45:00Z,29.6671,-81.2574,1.77,11.1,1111122 
NERRS,ioos:station:NOAA.NERRS:gtmpcwq:1,2015-02-07T20:45:00Z,29.6671,-81.2574,1.69,6.5,1111122 
NERRS,ioos:station:NOAA.NERRS:gtmpcwq:1,2015-02-07T21:45:00Z,29.6671,-81.2574,1.59,2.8,1111122 
NERRS,ioos:station:NOAA.NERRS:gtmpcwq:1,2015-02-07T22:45:00Z,29.6671,-81.2574,1.51,1.1,1111122 
NERRS,ioos:station:NOAA.NERRS:gtmpcwq:1,2015-02-07T23:45:00Z,29.6671,-81.2574,1.43,0.6,1111122 
NERRS,ioos:station:NOAA.NERRS:gtmpcwq:1,2015-02-08T00:45:00Z,29.6671,-81.2574,1.36,0.4,1111122 
NERRS,ioos:station:NOAA.NERRS:gtmpcwq:1,2015-02-08T01:45:00Z,29.6671,-81.2574,1.33,0.3,1111122 
NERRS,ioos:station:NOAA.NERRS:gtmpcwq:1,2015-02-08T02:45:00Z,29.6671,-81.2574,1.39,0.7,1111122 
NERRS,ioos:station:NOAA.NERRS:gtmpcwq:1,2015-02-08T03:45:00Z,29.6671,-81.2574,1.51,1.5,1111122 
NERRS,ioos:station:NOAA.NERRS:gtmpcwq:1,2015-02-08T04:45:00Z,29.6671,-81.2574,1.63,4.0,1111122 
NERRS,ioos:station:NOAA.NERRS:gtmpcwq:1,2015-02-08T05:45:00Z,29.6671,-81.2574,1.72,9.7,1111122 
NERRS,ioos:station:NOAA.NERRS:gtmpcwq:1,2015-02-08T06:45:00Z,29.6671,-81.2574,1.75,12.9,1111122 
NERRS,ioos:station:NOAA.NERRS:gtmpcwq:1,2015-02-08T07:45:00Z,29.6671,-81.2574,1.7,13.8,1111122 
NERRS,ioos:station:NOAA.NERRS:gtmpcwq:1,2015-02-08T08:45:00Z,29.6671,-81.2574,1.6,10.0,1111122 
NERRS,ioos:station:NOAA.NERRS:gtmpcwq:1,2015-02-08T10:45:00Z,29.6671,-81.2574,1.43,7.0,1111122 
NERRS,ioos:station:NOAA.NERRS:gtmpcwq:1,2015-02-08T11:45:00Z,29.6671,-81.2574,1.37,6.6,1111122 
NERRS,ioos:station:NOAA.NERRS:gtmpcwq:1,2015-02-08T12:45:00Z,29.6671,-81.2574,1.31,5.3,1111122 
NERRS,ioos:station:NOAA.NERRS:gtmpcwq:1,2015-02-08T13:45:00Z,29.6671,-81.2574,1.28,2.9,1111122 
NERRS,ioos:station:NOAA.NERRS:gtmpcwq:1,2015-02-08T14:45:00Z,29.6671,-81.2574,1.3,0.6,1111122 
NERRS,ioos:station:NOAA.NERRS:gtmpcwq:1,2015-02-08T15:45:00Z,29.6671,-81.2574,1.39,2.1,1111122 
NERRS,ioos:station:NOAA.NERRS:gtmpcwq:1,2015-02-08T16:45:00Z,29.6671,-81.2574,1.5,4.7,1111122 
NERRS,ioos:station:NOAA.NERRS:gtmpcwq:1,2015-02-08T17:45:00Z,29.6671,-81.2574,1.6,10.5,1111122 
NERRS,ioos:station:NOAA.NERRS:gtmpcwq:1,2015-02-08T18:45:00Z,29.6671,-81.2574,1.64,19.6,1111122 
NERRS,ioos:station:NOAA.NERRS:gtmpcwq:1,2015-02-08T19:45:00Z,29.6671,-81.2574,1.6,20.7,1111122 
NERRS,ioos:station:NOAA.NERRS:gtmpcwq:1,2015-02-08T20:45:00Z,29.6671,-81.2574,1.52,20.1,1111122 
NERRS,ioos:station:NOAA.NERRS:gtmpcwq:1,2015-02-08T21:45:00Z,29.6671,-81.2574,1.43,18.3,1111122 
NERRS,ioos:station:NOAA.NERRS:gtmpcwq:1,2015-02-08T22:45:00Z,29.6671,-81.2574,1.35,17.4,1111122 
NERRS,ioos:station:NOAA.NERRS:gtmpcwq:1,2015-02-08T23:45:00Z,29.6671,-81.2574,1.29,16.2,1111122 
NERRS,ioos:station:NOAA.NERRS:gtmpcwq:1,2015-02-09T00:45:00Z,29.6671,-81.2574,1.23,14.8,1111122 
NERRS,ioos:station:NOAA.NERRS:gtmpcwq:1,2015-02-09T01:45:00Z,29.6671,-81.2574,1.19,12.4,1111122 
NERRS,ioos:station:NOAA.NERRS:gtmpcwq:1,2015-02-09T02:45:00Z,29.6671,-81.2574,1.18,8.4,1111122 
NERRS,ioos:station:NOAA.NERRS:gtmpcwq:1,2015-02-09T03:45:00Z,29.6671,-81.2574,1.25,4.4,1111122 
NERRS,ioos:station:NOAA.NERRS:gtmpcwq:1,2015-02-09T04:45:00Z,29.6671,-81.2574,1.35,14.0,1111122 
NERRS,ioos:station:NOAA.NERRS:gtmpcwq:1,2015-02-09T05:45:00Z,29.6671,-81.2574,1.47,12.6,1111122 
NERRS,ioos:station:NOAA.NERRS:gtmpcwq:1,2015-02-09T06:45:00Z,29.6671,-81.2574,1.57,14.8,1111122 
NERRS,ioos:station:NOAA.NERRS:gtmpcwq:1,2015-02-09T07:45:00Z,29.6671,-81.2574,1.58,17.8,1111122 
NERRS,ioos:station:NOAA.NERRS:gtmpcwq:1,2015-02-09T08:45:00Z,29.6671,-81.2574,1.5,17.7,1111122 
NERRS,ioos:station:NOAA.NERRS:gtmpcwq:1,2015-02-09T09:45:00Z,29.6671,-81.2574,1.42,17.7,1111122 
NERRS,ioos:station:NOAA.NERRS:gtmpcwq:1,2015-02-09T10:45:00Z,29.6671,-81.2574,1.34,16.6,1111122 
NERRS,ioos:station:NOAA.NERRS:gtmpcwq:1,2015-02-09T11:45:00Z,29.6671,-81.2574,1.28,15.9,1111122 
NERRS,ioos:station:NOAA.NERRS:gtmpcwq:1,2015-02-09T12:45:00Z,29.6671,-81.2574,1.22,15.1,1111122 
NERRS,ioos:station:NOAA.NERRS:gtmpcwq:1,2015-02-09T13:45:00Z,29.6671,-81.2574,1.17,13.7,1111122 
NERRS,ioos:station:NOAA.NERRS:gtmpcwq:1,2015-02-09T14:45:00Z,29.6671,-81.2574,1.14,12.1,1111122 
NERRS,ioos:station:NOAA.NERRS:gtmpcwq:1,2015-02-09T15:45:00Z,29.6671,-81.2574,1.2,3.4,1111122 
NERRS,ioos:station:NOAA.NERRS:gtmpcwq:1,2015-02-09T16:45:00Z,29.6671,-81.2574,1.29,14.0,1111122 
NERRS,ioos:station:NOAA.NERRS:gtmpcwq:1,2015-02-09T17:45:00Z,29.6671,-81.2574,1.39,11.2,1111122 
NERRS,ioos:station:NOAA.NERRS:gtmpcwq:1,2015-02-09T18:45:00Z,29.6671,-81.2574,1.49,12.4,1111122 
NERRS,ioos:station:NOAA.NERRS:gtmpcwq:1,2015-02-09T19:45:00Z,29.6671,-81.2574,1.53,15.5,1111122 
NERRS,ioos:station:NOAA.NERRS:gtmpcwq:1,2015-02-09T20:45:00Z,29.6671,-81.2574,1.47,16.1,1111122 
NERRS,ioos:station:NOAA.NERRS:gtmpcwq:1,2015-02-09T21:45:00Z,29.6671,-81.2574,1.39,16.1,1111122 
NERRS,ioos:station:NOAA.NERRS:gtmpcwq:1,2015-02-09T22:45:00Z,29.6671,-81.2574,1.31,15.2,1111122 
NERRS,ioos:station:NOAA.NERRS:gtmpcwq:1,2015-02-09T23:45:00Z,29.6671,-81.2574,1.23,14.6,1111122 
NERRS,ioos:station:NOAA.NERRS:gtmpcwq:1,2015-02-10T01:45:00Z,29.6671,-81.2574,1.11,13.2,1111122 
NERRS,ioos:station:NOAA.NERRS:gtmpcwq:1,2015-02-10T02:45:00Z,29.6671,-81.2574,1.07,12.2,1111122 
NERRS,ioos:station:NOAA.NERRS:gtmpcwq:1,2015-02-10T03:45:00Z,29.6671,-81.2574,1.11,4.0,1111122 
NERRS,ioos:station:NOAA.NERRS:gtmpcwq:1,2015-02-10T04:45:00Z,29.6671,-81.2574,1.19,7.7,1111122 
NERRS,ioos:station:NOAA.NERRS:gtmpcwq:1,2015-02-10T05:45:00Z,29.6671,-81.2574,1.3,9.7,1111122 
NERRS,ioos:station:NOAA.NERRS:gtmpcwq:1,2015-02-10T06:45:00Z,29.6671,-81.2574,1.42,13.6,1111122 
NERRS,ioos:station:NOAA.NERRS:gtmpcwq:1,2015-02-10T07:45:00Z,29.6671,-81.2574,1.49,13.8,1111122 
NERRS,ioos:station:NOAA.NERRS:gtmpcwq:1,2015-02-10T08:45:00Z,29.6671,-81.2574,1.47,14.9,1111122 
NERRS,ioos:station:NOAA.NERRS:gtmpcwq:1,2015-02-10T09:45:00Z,29.6671,-81.2574,1.38,12.6,1111122 
NERRS,ioos:station:NOAA.NERRS:gtmpcwq:1,2015-02-10T10:45:00Z,29.6671,-81.2574,1.3,14.1,1111122 
NERRS,ioos:station:NOAA.NERRS:gtmpcwq:1,2015-02-10T11:45:00Z,29.6671,-81.2574,1.23,13.7,1111122 
NERRS,ioos:station:NOAA.NERRS:gtmpcwq:1,2015-02-10T12:45:00Z,29.6671,-81.2574,1.17,13.5,1111122 
NERRS,ioos:station:NOAA.NERRS:gtmpcwq:1,2015-02-10T13:45:00Z,29.6671,-81.2574,1.13,12.3,1111122 
NERRS,ioos:station:NOAA.NERRS:gtmpcwq:1,2015-02-10T14:45:00Z,29.6671,-81.2574,1.1,11.5,1111122 
NERRS,ioos:station:NOAA.NERRS:gtmpcwq:1,2015-02-10T15:45:00Z,29.6671,-81.2574,1.12,4.0,1111122 
NERRS,ioos:station:NOAA.NERRS:gtmpcwq:1,2015-02-10T16:45:00Z,29.6671,-81.2574,1.2,4.4,1111122 
NERRS,ioos:station:NOAA.NERRS:gtmpcwq:1,2015-02-10T17:45:00Z,29.6671,-81.2574,1.3,8.2,1111122 
NERRS,ioos:station:NOAA.NERRS:gtmpcwq:1,2015-02-10T18:45:00Z,29.6671,-81.2574,1.41,7.8,1111122 
NERRS,ioos:station:NOAA.NERRS:gtmpcwq:1,2015-02-10T19:45:00Z,29.6671,-81.2574,1.5,15.4,1111122 
NERRS,ioos:station:NOAA.NERRS:gtmpcwq:1,2015-02-10T20:45:00Z,29.6671,-81.2574,1.53,15.5,1111122 
NERRS,ioos:station:NOAA.NERRS:gtmpcwq:1,2015-02-10T21:45:00Z,29.6671,-81.2574,1.48,15.1,1111122 
NERRS,ioos:station:NOAA.NERRS:gtmpcwq:1,2015-02-10T22:45:00Z,29.6671,-81.2574,1.42,15.2,1111122 
NERRS,ioos:station:NOAA.NERRS:gtmpcwq:1,2015-02-10T23:45:00Z,29.6671,-81.2574,1.35,15.0,1111122 
NERRS,ioos:station:NOAA.NERRS:gtmpcwq:1,2015-02-11T00:45:00Z,29.6671,-81.2574,1.29,14.5,1111122 
NERRS,ioos:station:NOAA.NERRS:gtmpcwq:1,2015-02-11T01:45:00Z,29.6671,-81.2574,1.24,13.7,1111122 
NERRS,ioos:station:NOAA.NERRS:gtmpcwq:1,2015-02-11T02:45:00Z,29.6671,-81.2574,1.2,12.5,1111122 
NERRS,ioos:station:NOAA.NERRS:gtmpcwq:1,2015-02-11T03:45:00Z,29.6671,-81.2574,1.25,7.1,1111122 
NERRS,ioos:station:NOAA.NERRS:gtmpcwq:1,2015-02-11T04:45:00Z,29.6671,-81.2574,1.36,11.8,1111122 
NERRS,ioos:station:NOAA.NERRS:gtmpcwq:1,2015-02-11T05:45:00Z,29.6671,-81.2574,1.5,9.5,1111122 
NERRS,ioos:station:NOAA.NERRS:gtmpcwq:1,2015-02-11T06:45:00Z,29.6671,-81.2574,1.63,16.0,1111122 
NERRS,ioos:station:NOAA.NERRS:gtmpcwq:1,2015-02-11T07:45:00Z,29.6671,-81.2574,1.71,17.0,1111122 
NERRS,ioos:station:NOAA.NERRS:gtmpcwq:1,2015-02-11T08:45:00Z,29.6671,-81.2574,1.78,19.4,1111122 
NERRS,ioos:station:NOAA.NERRS:gtmpcwq:1,2015-02-11T09:45:00Z,29.6671,-81.2574,1.82,20.8,1111122 
NERRS,ioos:station:NOAA.NERRS:gtmpcwq:1,2015-02-11T10:45:00Z,29.6671,-81.2574,1.79,21.0,1111122 
NERRS,ioos:station:NOAA.NERRS:gtmpcwq:1,2015-02-11T11:45:00Z,29.6671,-81.2574,1.74,19.2,1111122 
NERRS,ioos:station:NOAA.NERRS:gtmpcwq:1,2015-02-11T12:45:00Z,29.6671,-81.2574,1.68,16.7,1111122 
NERRS,ioos:station:NOAA.NERRS:gtmpcwq:1,2015-02-11T13:45:00Z,29.6671,-81.2574,1.61,12.1,1111122 
NERRS,ioos:station:NOAA.NERRS:gtmpcwq:1,2015-02-11T14:45:00Z,29.6671,-81.2574,1.55,10.4,1111122 
NERRS,ioos:station:NOAA.NERRS:gtmpcwq:1,2015-02-11T15:45:00Z,29.6671,-81.2574,1.53,10.1,1111122 
NERRS,ioos:station:NOAA.NERRS:gtmpcwq:1,2015-02-11T16:45:00Z,29.6671,-81.2574,1.58,10.4,1111122 